Погода в Сухуме

Абхазия     43°00′13″N   41°01′08″E
темп.,
°C
ветер,
м/с
пор.,
м/с
влажн.,
%
обл.,
%
осадки,
мм/ч
давл.,
гПа
погр.,
м
24 июня, чт
чт2400:00+20св119375 0.1 101540
03:00+21в229074 0.1 101461
06:00+21в118924 0.0 101493
09:00+24юз217615 0.0 1014570
12:00+24зюз327717 0.0 1014531
15:00+24з337520 0.1 1014597
18:00+23з348112 0.0 1013405
21:00+21ссв119422 0.1 101529
25 июня, пт
пт2500:00+20ссз119434 0.0 101481
03:00+21с119373 0.1 101481
06:00+21в009161 0.0 101388
09:00+23зюз228137 0.1 1013445
12:00+24зюз337543 0.1 1013668
15:00+25з437238 0.1 1012730
18:00+23з348014 0.0 1011405
21:00+21сз1192100 0.1 101348
26 июня, сб
сб2600:00+20св119243 0.0 101244
03:00+20всв1192100 0.0 101144
06:00+21св1189100 0.0 101188
09:00+23зюз227760 0.0 1011560
12:00+24зюз337326 0.0 1011633
15:00+24зюз337430 0.1 1010570
18:00+23з347958 0.0 1010472
21:00+20всв1192100 0.1 101236
27 июня, вс
вс2700:00+20всв1292100 0.4 101249
03:00+20всв1192100 0.4 101261
06:00+21всв1188100 0.0 101279
09:00+24ю227510 0.0 1012534
12:00+24юз327560 0.0 1012723
15:00+25зюз327329 0.0 1012682
18:00+24зюз22784 0.1 1012394
21:00+21в22925 0.5 101441
28 июня, пн
пн2800:00+20св229365 1.8 101457
03:00+20ссз118971 1.8 101436
06:00+21ссз11884 0.0 101455
09:00+24юз217612 0.0 1014490
12:00+25зюз337513 0.0 1014650
15:00+25зюз437410 0.0 1013633
18:00+24зюз338019 0.0 1013430
21:00+21с119273 0.0 101520